McGuire AFB, NJ

7:38 PM EDT on April 24, 2018 (GMT -0400)
McGuire Air Force Base

Weather History for KWRI - August, 2014

Change the Weather History Date:

Sunday, August 10, 2014

  Actual Average Record
Temperature  
Mean Temperature 72 °F -  
Max Temperature 86 °F 83 °F 100 °F (2001)
Min Temperature 59 °F 64 °F 55 °F (1999)
Cooling Degree Days 6    
Growing Degree Days 22 (Base 50)    
Moisture  
Dew Point 60 °F    
Average Humidity 70    
Maximum Humidity 97    
Minimum Humidity 37    
Precipitation  
Precipitation 0.00 in - - ()
Sea Level Pressure  
Sea Level Pressure 30.11 in    
Wind  
Wind Speed 3 mph (SE)    
Max Wind Speed 9 mph    
Max Gust Speed -    
Visibility 10 miles    
Events Rain    
Averages and records for this station are not official NWS values.
T = Trace of Precipitation, MM = Missing Value Source: NWS Daily Summary

Daily Weather History Graph

Daily Weather History Graph

Search for Another Location

Airport or City:

Astronomy

Aug. 10, 2014 Rise Set
Actual Time 6:05 AM EDT 8:01 PM EDT
Civil Twilight 5:35 AM EDT 8:30 PM EDT
Nautical Twilight 4:59 AM EDT 9:06 PM EDT
Astronomical Twilight 4:20 AM EDT 9:45 PM EDT
Moon 7:46 PM EDT (8/10) 5:54 AM EDT (8/10)
Length of Visible Light 14h 55m
Length of Day
13h 56m
Full, 100% of the Moon is Illuminated
Aug 10
Full
Aug 10
Full
Aug 17
Last Quarter
Aug 25
New
Sep 2
First Quarter

Hourly Weather History & Observations

Time (EDT) Temp. Heat Index Dew Point Humidity Pressure Visibility Wind Dir Wind Speed Gust Speed Precip Events Conditions
12:58 AM 65.3 °F - 59.2 °F 81% 30.11 in 10.0 mi WSW 4.6 mph - N/A   Clear
1:58 AM 66.6 °F - 60.6 °F 81% 30.10 in 10.0 mi SW 2.3 mph - N/A   Clear
2:58 AM 62.6 °F - 59.9 °F 91% 30.10 in 10.0 mi Calm Calm - N/A   Clear
3:58 AM 60.8 °F - 59.0 °F 94% 30.10 in 10.0 mi ENE 2.3 mph - 0.00 in Rain Light Rain
3:59 AM 60.8 °F - 59.0 °F 94% 30.09 in 10.0 mi ENE 2.3 mph - N/A   Clear
4:58 AM 59.2 °F - 58.5 °F 97% 30.11 in 10.0 mi Calm Calm - 0.00 in   Clear
5:58 AM 59.5 °F - 58.6 °F 97% 30.11 in 10.0 mi Calm Calm - N/A   Clear
6:58 AM 60.1 °F - 58.8 °F 96% 30.12 in 10.0 mi Calm Calm - N/A   Clear
7:58 AM 67.1 °F - 62.8 °F 86% 30.13 in 10.0 mi Calm Calm - N/A   Clear
8:58 AM 74.3 °F - 63.1 °F 68% 30.13 in 10.0 mi NE 3.5 mph - N/A   Clear
9:58 AM 78.1 °F - 63.5 °F 61% 30.13 in 10.0 mi Variable 3.5 mph - N/A   Clear
10:58 AM 81.9 °F 82.5 °F 60.8 °F 49% 30.13 in 10.0 mi ESE 3.5 mph - N/A   Clear
11:58 AM 83.7 °F 83.4 °F 58.8 °F 43% 30.12 in 10.0 mi Variable 3.5 mph - N/A   Clear
12:58 PM 84.9 °F 84.1 °F 57.2 °F 39% 30.12 in 10.0 mi Variable 1.2 mph - N/A   Clear
1:58 PM 83.3 °F 82.5 °F 55.9 °F 39% 30.11 in 10.0 mi West 3.5 mph - N/A   Clear
2:58 PM 83.7 °F 82.5 °F 54.5 °F 37% 30.09 in 10.0 mi NE 3.5 mph - 0.00 in   Partly Cloudy
3:58 PM 81.9 °F 82.5 °F 60.8 °F 49% 30.08 in 10.0 mi Variable 6.9 mph - N/A   Scattered Clouds
4:58 PM 80.6 °F 81.9 °F 63.0 °F 55% 30.08 in 10.0 mi ESE 3.5 mph - N/A   Partly Cloudy
5:58 PM 81.9 °F 82.9 °F 62.4 °F 52% 30.08 in 10.0 mi SE 9.2 mph - N/A   Scattered Clouds
6:58 PM 78.6 °F - 62.1 °F 57% 30.08 in 10.0 mi SSE 8.1 mph - N/A   Clear
7:58 PM 74.3 °F - 63.0 °F 68% 30.09 in 10.0 mi SE 3.5 mph - N/A   Clear
8:58 PM 70.7 °F - 62.8 °F 76% 30.10 in 10.0 mi South 4.6 mph - 0.00 in Rain Light Rain
9:11 PM 69.8 °F - 62.6 °F 78% 30.09 in 10.0 mi South 2.3 mph - N/A   Clear
9:58 PM 68.5 °F - 61.5 °F 78% 30.11 in 10.0 mi SSE 4.6 mph - 0.00 in   Clear
10:58 PM 67.1 °F - 60.8 °F 80% 30.12 in 10.0 mi Calm Calm - N/A   Clear
11:58 PM 65.3 °F - 60.8 °F 85% 30.11 in 10.0 mi Calm Calm - N/A   Clear